Tracking 30995 objects as of 7-Jul-2025
HD Live streaming from Space Station
objects crossing your sky now

USA 294

Track USA 294 now!
10-day predictions
USA 294 is classified as:


NORAD ID: 45110
Int'l Code: 2020-007A
Perigee: 462.9 km
Apogee: 476.2 km
Inclination: 70.0 °
Period: 93.8 minutes
Semi major axis: 6840 km
RCS: Unknown
Launch date: January 31, 2020
Source: United States (US)
Launch site: Rocket Lab Launch Complex (RLLC)

USA 294 (NROL-151) is a classified satellite launched by Rocket Lab for the U.S. National Reconnaissance Office.
Your satellite tracking list
Your tracking list is empty




NASA's NSSDC Master Catalog

Two Line Element Set (TLE):
1 45110U 20007A   23232.80903846 0.00110000  00000-0  32750-2 0    04
2 45110  69.9913 111.5649 0009740 159.9373 200.0626 15.34502222    06
Source of the keplerian elements: McCants